CZ-6A DEB, 61102

Orbit data source: Space-Track

CZ-6A DEB, 61102 is space debris in LEO originally from a launch on Tue, 06 Aug 2024 UTC launched from the Taiyaun Space Center, China (TSC). Debris objects in space refer to the collection of defunct objects orbiting the Earth. Examples of debris include non-operational satellites, rocket bodies, and fragments generated from explosions, collisions, or faulty payload assembly.

Loading next visibility...
Identifier
61102, 2024-140NU
Orbit
LEO
Country
Flag of CNCN / PRC
Related business
Manufacturer
SAST
Mission
Spacecraft
Bus & Motor
Unknown
Mass
Unknown
Launch date (UTC)
2024-08-06 (1 year ago)
Launch vehicle
Unknown
Launch site
Taiyaun Space Center, China (TSC)
Object type
Payload
Rocket body
Debris
Shape & HBR
Unknown shape, 0.1 m
Radar Cross Section
Small (<0.1 m²)

Expand to show TLE details & history
Last TLE update: 1 day ago

TLE from 1 day ago
0 CZ-6A DEB
1 61102U 24140NU  25312.17509272  .00014995  00000-0  15770-2 0  9997
2 61102  88.7247 278.9681 0140268 200.5371 159.0184 14.82277723 64436
Epoch: 2025-11-08T04:12Z
TLE epoch observation values (Epoch: 2025-11-08T04:12:08.011Z)
Latitude
0.00007°
Longitude
168.32624°
Altitude
717.159 km
Speed
7.448 km/s
True Right ascension
18h 35m 52s
True Declination
0° 00' 00"
Sunlit
Object was in daylight at epoch
Visualization orbit readout
Latitude
Unknown
Longitude
Unknown
Altitude
Unknown
Speed
Unknown
Apparent Right ascension
Unknown
Apparent Declination
Unknown
Sunlit
N/A
Visualization observer readout
Local Sidereal Time
11:23:08
Azimuth
Unknown
Elevation
Unknown
Doppler factor
Unknown
Orbital elements
Apogee altitude
717.155 km
Perigee altitude
520.86 km
Semi-major axis
6,997.144 km
Eccentricity
0.01403
Inclination
88.7247°
RAAN
278.9681°
Arg. of periapsis
200.5371°
True anomaly
159.58466°
Mean anomaly
159.0184°
Eccentric anomaly
159.30245°
Mean motion
3.70819 °/min
Orbital period
97.08 mins
BSTAR
0.001577
Loading maneuver chart data...
Computing Atmospheric mass density...
Loading historical data...
Loading historical data...
Loading historical data...
Loading historical data...
Loading historical data...
Loading historical data...
Loading historical data...

Documentation

Showing up to 5 results
|